When you browse on this site, cookies collect data to enhance your experience and personalize the content and advertising you see.
Visit our Privacy Policy to learn more. By continuing to use the site, you agree to this use of cookies and data.
  • In Hungary
  • List of Countries
  • For 7 days
  • Water Temperature
  • Satellite Maps
  • Weather Map
  • News
  • Weather Widgets
  • user-avatar
    Login

    Hourly Weather Tarija

    Today, 12 December, Wednesday

    Time Temperature Precipitation Wind Pressure Humidity
    00:00 +23°C° 0 mm 1 mps 597 mmHg 77%
    01:00 +23°C° 0 mm 1 mps 597 mmHg 77%
    02:00 +22°C° 0 mm 1 mps 596 mmHg 83%
    03:00 +22°C° 0 mm 1 mps 596 mmHg 82%
    04:00 +21°C° 0 mm 1 mps 596 mmHg 81%
    05:00 +21°C° 0 mm 1 mps 596 mmHg 80%
    06:00 +23°C° 0 mm 1 mps 597 mmHg 71%
    07:00 +24°C° 0 mm 1 mps 598 mmHg 62%
    08:00 +26°C° 0 mm 2 mps 599 mmHg 54%
    09:00 +27°C° 0.4 mm 2 mps 599 mmHg 52%
    10:00 +28°C° 0.4 mm 3 mps 599 mmHg 51%
    11:00 +29°C° 0.4 mm 4 mps 600 mmHg 50%
    12:00 +29°C° 1.9 mm 4 mps 599 mmHg 52%
    13:00 +28°C° 1.9 mm 4 mps 599 mmHg 55%
    14:00 +28°C° 1.9 mm 4 mps 598 mmHg 58%
    15:00 +27°C° 1.9 mm 4 mps 598 mmHg 64%
    16:00 +25°C° 1.9 mm 3 mps 597 mmHg 71%
    17:00 +24°C° 1.9 mm 3 mps 596 mmHg 77%
    18:00 +23°C° 5.8 mm 2 mps 597 mmHg 78%
    19:00 +23°C° 5.8 mm 2 mps 597 mmHg 79%
    20:00 +21°C° 5.8 mm 2 mps 598 mmHg 80%
    21:00 +21°C° 2.6 mm 2 mps 598 mmHg 82%
    22:00 +20°C° 2.6 mm 2 mps 598 mmHg 83%
    23:00 +21°C° 2.6 mm 1 mps 598 mmHg 84%

    Tomorrow, 13 December, Thursday

    Time Temperature Precipitation Wind Pressure Humidity
    00:00 +20°C° 0.5 mm 2 mps 598 mmHg 81%
    01:00 +20°C° 0.5 mm 2 mps 598 mmHg 78%
    02:00 +20°C° 0.5 mm 2 mps 597 mmHg 75%
    03:00 +20°C° 0 mm 2 mps 597 mmHg 71%
    04:00 +20°C° 0 mm 2 mps 597 mmHg 68%
    05:00 +20°C° 0 mm 2 mps 597 mmHg 64%
    06:00 +21°C° 0 mm 2 mps 597 mmHg 60%
    07:00 +23°C° 0 mm 2 mps 598 mmHg 56%
    08:00 +24°C° 0 mm 2 mps 598 mmHg 51%
    09:00 +26°C° 0.1 mm 2 mps 599 mmHg 45%
    10:00 +28°C° 0.1 mm 2 mps 599 mmHg 39%
    11:00 +29°C° 0.1 mm 2 mps 599 mmHg 33%
    12:00 +30°C° 0 mm 2 mps 598 mmHg 32%
    13:00 +31°C° 0 mm 3 mps 598 mmHg 30%
    14:00 +33°C° 0 mm 3 mps 597 mmHg 29%
    15:00 +33°C° 0 mm 4 mps 597 mmHg 32%
    16:00 +32°C° 0 mm 4 mps 596 mmHg 35%
    17:00 +32°C° 0 mm 4 mps 595 mmHg 38%
    18:00 +29°C° 0.6 mm 3 mps 595 mmHg 46%
    19:00 +27°C° 0.6 mm 2 mps 595 mmHg 55%
    20:00 +25°C° 0.6 mm 1 mps 595 mmHg 64%
    21:00 +24°C° 0.4 mm 1 mps 595 mmHg 64%
    22:00 +24°C° 0.4 mm 2 mps 595 mmHg 64%
    23:00 +24°C° 0.4 mm 2 mps 596 mmHg 65%

    Day after tomorrow, 14 December, Friday

    Time Temperature Precipitation Wind Pressure Humidity
    00:00 +24°C° 0 mm 2 mps 595 mmHg 65%
    01:00 +24°C° 0 mm 2 mps 594 mmHg 65%
    02:00 +23°C° 0 mm 1 mps 594 mmHg 66%
    03:00 +23°C° 0 mm 1 mps 593 mmHg 66%
    04:00 +22°C° 0 mm 1 mps 593 mmHg 65%
    05:00 +22°C° 0 mm 1 mps 593 mmHg 65%
    06:00 +24°C° 0 mm 1 mps 594 mmHg 57%
    07:00 +26°C° 0 mm 1 mps 595 mmHg 49%
    08:00 +28°C° 0 mm 1 mps 597 mmHg 40%
    09:00 +29°C° 0 mm 1 mps 597 mmHg 37%
    10:00 +30°C° 0 mm 2 mps 597 mmHg 33%
    11:00 +32°C° 0 mm 2 mps 598 mmHg 30%
    12:00 +33°C° 0.1 mm 3 mps 597 mmHg 31%
    13:00 +34°C° 0.1 mm 5 mps 597 mmHg 32%
    14:00 +34°C° 0.1 mm 6 mps 597 mmHg 34%
    15:00 +32°C° 1.9 mm 6 mps 596 mmHg 41%
    16:00 +30°C° 1.9 mm 6 mps 596 mmHg 48%
    17:00 +28°C° 1.9 mm 5 mps 595 mmHg 56%
    18:00 +26°C° 6.1 mm 5 mps 595 mmHg 63%
    19:00 +25°C° 6.1 mm 4 mps 596 mmHg 70%
    20:00 +22°C° 6.1 mm 3 mps 596 mmHg 77%
    21:00 +23°C° 2.4 mm 2 mps 596 mmHg 79%
    22:00 +21°C° 2.4 mm 2 mps 597 mmHg 80%
    23:00 +21°C° 2.4 mm 2 mps 597 mmHg 82%

    15 December, Saturday

    Time Temperature Precipitation Wind Pressure Humidity
    00:00 +21°C° 0.9 mm 2 mps 597 mmHg 82%
    01:00 +22°C° 0.9 mm 1 mps 596 mmHg 82%
    02:00 +21°C° 0.9 mm 1 mps 596 mmHg 81%
    03:00 +21°C° 0 mm 1 mps 596 mmHg 84%
    04:00 +21°C° 0 mm 1 mps 596 mmHg 86%
    05:00 +19°C° 0 mm 2 mps 596 mmHg 89%
    06:00 +19°C° 0.1 mm 2 mps 597 mmHg 89%
    07:00 +20°C° 0.1 mm 2 mps 598 mmHg 88%
    08:00 +20°C° 0.1 mm 3 mps 598 mmHg 88%
    09:00 +20°C° 0.3 mm 3 mps 599 mmHg 84%
    10:00 +21°C° 0.2 mm 3 mps 599 mmHg 80%
    11:00 +21°C° 0.2 mm 3 mps 599 mmHg 77%
    12:00 +22°C° 0.3 mm 3 mps 599 mmHg 75%
    13:00 +22°C° 0.3 mm 4 mps 598 mmHg 73%
    14:00 +23°C° 0.3 mm 4 mps 598 mmHg 72%
    15:00 +22°C° 0.4 mm 4 mps 597 mmHg 75%
    16:00 +22°C° 0.4 mm 4 mps 597 mmHg 78%
    17:00 +21°C° 0.4 mm 4 mps 597 mmHg 81%
    18:00 +20°C° 0.8 mm 3 mps 597 mmHg 84%
    19:00 +19°C° 0.8 mm 3 mps 597 mmHg 88%
    20:00 +19°C° 0.8 mm 2 mps 598 mmHg 91%
    21:00 +18°C° 0.6 mm 2 mps 598 mmHg 91%
    22:00 +18°C° 0.6 mm 2 mps 598 mmHg 90%
    23:00 +19°C° 0.6 mm 1 mps 599 mmHg 90%

    16 December, Sunday

    Time Temperature Precipitation Wind Pressure Humidity
    00:00 +19°C° 0.4 mm 1 mps 598 mmHg 91%
    01:00 +18°C° 0.4 mm 1 mps 597 mmHg 91%
    02:00 +18°C° 0.4 mm 1 mps 597 mmHg 92%
    03:00 +18°C° 0.2 mm 1 mps 597 mmHg 92%
    04:00 +18°C° 0.2 mm 1 mps 597 mmHg 92%
    05:00 +18°C° 0.2 mm 1 mps 597 mmHg 93%
    06:00 +19°C° 0.1 mm 1 mps 597 mmHg 89%
    07:00 +19°C° 0.1 mm 1 mps 598 mmHg 85%
    08:00 +20°C° 0.1 mm 1 mps 598 mmHg 82%
    09:00 +22°C° 0.1 mm 1 mps 599 mmHg 74%
    10:00 +24°C° 0.1 mm 2 mps 599 mmHg 65%
    11:00 +25°C° 0.1 mm 3 mps 599 mmHg 57%
    12:00 +25°C° 1.4 mm 3 mps 599 mmHg 58%
    13:00 +26°C° 1.4 mm 3 mps 598 mmHg 59%
    14:00 +26°C° 1.4 mm 4 mps 598 mmHg 60%
    15:00 +25°C° 2.6 mm 3 mps 597 mmHg 64%
    16:00 +25°C° 2.6 mm 3 mps 596 mmHg 68%
    17:00 +24°C° 2.6 mm 3 mps 596 mmHg 72%
    18:00 +22°C° 2.5 mm 3 mps 596 mmHg 77%
    19:00 +21°C° 2.5 mm 2 mps 596 mmHg 83%
    20:00 +21°C° 2.5 mm 1 mps 596 mmHg 88%
    21:00 +21°C° 1.6 mm 1 mps 596 mmHg 89%
    22:00 +20°C° 1.6 mm 1 mps 597 mmHg 90%
    23:00 +20°C° 1.6 mm 1 mps 597 mmHg 92%

    17 December, Monday

    Time Temperature Precipitation Wind Pressure Humidity
    00:00 +20°C° 1 mm 1 mps 596 mmHg 92%
    01:00 +20°C° 1 mm 1 mps 596 mmHg 92%
    02:00 +20°C° 1 mm 1 mps 595 mmHg 92%
    03:00 +19°C° 0.7 mm 1 mps 596 mmHg 92%
    04:00 +19°C° 0.7 mm 1 mps 596 mmHg 92%
    05:00 +19°C° 0.7 mm 1 mps 596 mmHg 92%
    06:00 +20°C° 0.9 mm 1 mps 596 mmHg 90%
    07:00 +20°C° 0.9 mm 1 mps 597 mmHg 88%
    08:00 +20°C° 0.9 mm 1 mps 597 mmHg 86%
    09:00 +21°C° 0.5 mm 1 mps 597 mmHg 81%
    10:00 +22°C° 0.5 mm 1 mps 598 mmHg 76%
    11:00 +23°C° 0.5 mm 2 mps 598 mmHg 70%
    12:00 +23°C° 1.2 mm 2 mps 597 mmHg 73%
    13:00 +23°C° 1.2 mm 2 mps 597 mmHg 76%
    14:00 +23°C° 1.2 mm 2 mps 597 mmHg 78%
    15:00 +21°C° 2.2 mm 2 mps 596 mmHg 82%
    16:00 +20°C° 2.2 mm 2 mps 596 mmHg 86%
    17:00 +20°C° 2.2 mm 2 mps 596 mmHg 90%
    18:00 +19°C° 2.3 mm 2 mps 596 mmHg 91%
    19:00 +19°C° 2.3 mm 2 mps 597 mmHg 92%
    20:00 +18°C° 2.3 mm 2 mps 597 mmHg 93%
    21:00 +18°C° 3.4 mm 2 mps 597 mmHg 93%
    22:00 +18°C° 3.4 mm 2 mps 598 mmHg 93%
    23:00 +18°C° 3.4 mm 2 mps 598 mmHg 93%
    Show more